Home   Weather   Lagos   Past weeks
Flag for Nigeria

Past Weather in Lagos, Nigeria — Yesterday and Last 2 Weeks

Now
81 °F

Clear.


Feels Like: 88 °F
Forecast: 76 / 100 °F
Wind: No wind

Location: Lagos / Ikeja

Current Time: Jan 16, 2019 at 3:19:33 am

Latest Report: Jan 16, 2019 at 2:00 am


Visibility: 5 mi

Pressure: 29.89 "Hg

Humidity: 94%

Dew Point: 79 °F

Location of LagosLocation

Past Weather in Lagos — Graph

°F

Lagos Temperature Yesterday

Maximum temperature yesterday: 93 °F (at 2:00 pm)
Minimum temperature yesterday: 79 °F (at 7:00 am)
Average temperature yesterday: 86 °F

High & Low Weather Summary for the Past Weeks

 TemperatureHumidityPressure
High99 °F (Jan 1, 4:00 pm)100% (Jan 1, 7:00 am)30.04 "Hg (Jan 1, 7:00 am)
Low73 °F (Jan 6, 4:00 am)37% (Jan 5, 2:00 pm)29.77 "Hg (Jan 12, 3:00 pm)
Average84 °F79%29.91 "Hg
* Reported Jan 1 2:00 am — Jan 16 2:00 am, Lagos. Weather by CustomWeather, © 2019

Note: Actual official high and low records may vary slightly from our data, if they occured in-between our weather recording intervals... More about our weather records

Advertising

Lagos Weather History for the Previous 24 Hours

Scroll right to see more
 ConditionsComfort  
Time TempWeatherWind HumidityBarometerVisibility
2:00 am
Wed, Jan 16
81 °FClear.No wind94%29.89 "Hg5 mi
1:00 am81 °FClear.2 mph94%29.92 "Hg5 mi
12:00 am82 °FClear.2 mph89%29.92 "Hg5 mi
11:00 pm
Tue, Jan 15
82 °FClear.2 mph89%29.92 "Hg5 mi
10:00 pm82 °FClear.5 mph89%29.95 "Hg5 mi
9:00 pm84 °FClear.2 mph84%29.92 "Hg5 mi
6:00 pm88 °FClear.7 mph70%29.86 "Hg5 mi
5:00 pm90 °FPassing clouds.6 mph71%29.86 "Hg5 mi
4:00 pm91 °FScattered clouds.5 mph67%29.86 "Hg5 mi
3:00 pm91 °FPartly sunny.9 mph67%29.86 "Hg5 mi
2:00 pm93 °FPartly sunny.3 mph63%29.89 "Hg5 mi
1:00 pm91 °FPartly sunny.5 mph67%29.95 "Hg5 mi
12:00 pm91 °FPartly sunny.7 mph67%29.95 "Hg4 mi
11:00 am88 °FPartly sunny.6 mph75%29.98 "Hg3 mi
10:00 am84 °FPartly sunny.5 mph89%29.98 "Hg2 mi
9:00 am82 °FHaze.7 mph94%29.95 "Hg1 mi
8:00 am81 °FFog.5 mph94%29.95 "Hg1 mi
7:00 am79 °FPassing clouds.2 mph94%29.92 "Hg3 mi
6:00 am81 °FPassing clouds.2 mph89%29.89 "Hg4 mi
5:00 am81 °FPassing clouds.2 mph89%29.89 "Hg4 mi
Weather by CustomWeather, © 2019

See weather overview